IUS R/B(2), 26883

Orbit data source: Space-Track

IUS R/B(2), 26883 is space debris in GEO originally from a launch on Mon, 06 Aug 2001 UTC launched from the Air Force Eastern Test Range (AFETR). Debris objects in space refer to the collection of defunct objects orbiting the Earth. Examples of debris include non-operational satellites, rocket bodies, and fragments generated from explosions, collisions, or faulty payload assembly.

Loading next visibility...
Identifier
26883, 2001-033D
Orbit
GEO
Last TLE update
1 day ago
Origin
Manufacturer
PW CSD
Mission
Orbus 6E) (Titan IVB IUS)"
Bus & Motor
ORBUS 6, ORBUS 6
Mass
1,079 kg wet, 1,079 kg dry
Launch date (UTC)
2001-08-06 (24 years ago)
Launch vehicle
Unknown
Launch site
Air Force Eastern Test Range (AFETR)
Object type
Payload
Rocket body
Debris
Shape & HBR
Cyl, Unknown HBR
Radar Cross Section
8.086 m²

Expand to show TLE details & history

TLE from 1 day ago
0 IUS R/B(2)
1 26883U 01033D   25181.37484250 -.00000287  00000-0  00000-0 0  9992
2 26883  12.5787  19.1351 0006398  17.9449 342.0910  0.99901625 22272
Epoch: 2025-06-30T08:59Z
TLE epoch observation values (Epoch: 2025-06-30T08:59:46.391Z)
Latitude
0.00001°
Longitude
-34.47168°
Altitude
35,864.595 km
Speed
3.073 km/s
True Right ascension
01h 16m 37s
True Declination
0° 00' 00"
Sunlit
Object was in daylight at epoch
Visualization orbit readout
Latitude
1.89576°
Longitude
-25.96671°
Altitude
35,863.477 km
Speed
3.073 km/s
Apparent Right ascension
02h 16m 27s
Apparent Declination
-3° 45' 27"
Sunlit
Object is in daylight
Visualization observer readout
Local Sidereal Time
21:14:19
Azimuth
102.277° ESE
Elevation
8.579°
Doppler factor
1
Orbital elements
Apogee altitude
35,918.722 km
Perigee altitude
35,864.634 km
Semi-major axis
42,269.815 km
Eccentricity
0.00064
Inclination
12.5787°
RAAN
19.1351°
Arg. of periapsis
17.9449°
True anomaly
Unknown
Mean anomaly
342.091°
Eccentric anomaly
Unknown
Mean motion
0.24975 °/min
Orbital period
1,441.47 mins
BSTAR
0
Loading historical data...
26883 neighbors
Loading maneuver chart data...
Loading SW <> Apogee altitude chart data...
Loading historical data...
Loading historical data...
Loading historical data...
Loading historical data...
Loading historical data...
Loading historical data...
Loading historical data...
Other satellites on launch #33 in the year 2001 (2001-08-06 UTC)

IUS R/B(2) Visibility forecast

Observer location: undefined°, undefined°

Span
Click to sort rows by Start time (UTC) header in descending order
Start Az.
Max El. time (UTC)
Max El. Az.
Max El.
End time (UTC)
End Az.
562 mins2025-07-01 10:16:01.165Z100.78° ESE2025-07-01 14:37:01.165Z93.68° ESE15.177°2025-07-01 19:38:01.165Z100.147° ESE
|